星链-35586(STARLINK-35586)

导读

STARLINK-35586是美国SpaceX星链星座的成员卫星,于2025年10月25日发射,归入星链低轨互联网星座组网序列。星链星座旨在为全球提供覆盖偏远地区的高速宽带服务,该卫星延续了星链星座标准化设计,承担低轨通信中继任务,支撑星座全球覆盖能力的持续扩容与更新。

基本信息
目录编号:
66159
目录名称:
STARLINK-35586
国际标识:
2025-240P
轨道中心:
EARTH
卫星名称:
星链-35586
卫星全名:
星链-35586(STARLINK-35586)
卫星状态:
在轨 (已飞行315 天)
发射日期:
2025-10-25 UTC
国别 :
美国 (US)
星等 :
--
轨道信息
数据来源 国际轨道数据
星历时间: 2026-09-05T19:34:01+0800
6小时前
查看轨道信息
半长轴: 6840.861km
偏心率: 0.0001168
轨道倾角: 53.160°
近地点辐角 82.197°
升交点赤经 304.276°
平近点角 277.917°
近地点: 461.924km
远地点: 463.524km
周期: 93.848分钟
每日圈数: 15.343932
详细信息
固有亮度:
5
最大亮度:
2.5
卫星平台:
Starlink V1.0
覆盖范围:
全球
运营商:
太空探索技术公司
运营商所在国:
美国
制造商(研发单位):
太空探索技术公司
制造商所在国:
美国
使用方式:
暂无
卫星简介
Starlink 计划是 SpaceX 推出的全球卫星互联网项目,通过发射低轨道卫星,为全球尤其是偏远地区提供高速、低延迟的互联网服务。自 2019 年起,Starlink 已部署数千颗卫星,旨在缩小全球数字鸿沟,推动互联网普及。该项目还为军事、航空等行业提供通信支持,带来广泛经济效益。
2D轨道图
3D轨道图
轨道高度分析图
轨道倾角分析图
轨道综合分析图
查看轨道综合分析图
交会数据列表
事件ID 空间交会对象 最接近时刻(TCA) 交会距离 交会风险概率(CRP) 交会风险指数(CRI) 操作
CDM_260907-065006-615906-833221
2026-09-07T
06:50:27+0000
0.156 km
中距离
7.961936E-4 高风险 0.93
CDM_260906-221406-615906-833221
2026-09-06T
22:14:38+0000
0.662 km
远距离
6.272463E-5 中风险 0.71
CDM_260905-105405-264606-615921
2026-09-05T
10:54:44+0000
2.761 km
极远距离
1.295388E-6 低风险 0.37
CDM_260906-204006-615906-833221
2026-09-06T
20:40:50+0000
2.872 km
极远距离
9.431075E-7 极低风险 0.34